Billings, MT

9:49 AM MDT on May 26, 2017 (GMT -0600)
Jupiter Sulphur | | Change Station

Elev 3114 ft 45.78 °N, 108.49 °W | Updated 1 minute ago

Clear
Clear
56.5 °F
Feels Like 56.5 °F
N
3.0
Wind Variable Wind from East
Gusts 4.0 mph

Today
High -- | Low -- °F
--% Chance of Precip.
Yesterday
High -- | Low -- °F
Precip. -- in
Pressure 29.94 in
Visibility 10.0 miles
Clouds Few 8500 ft
Few 20000 ft
Dew Point 38 °F
Humidity 51%
Rainfall 0.00 in
Snow Depth Not available.
5:31 AM 8:51 PM
New Moon, 1% visible
METAR KBIL 261453Z 21006KT 10SM FEW085 FEW200 10/02 A2994 RMK AO2 SLP136 T01000022 50005
Pressure 29.94 in
Visibility 10.0 miles
Clouds Few 8500 ft
Few 20000 ft
Dew Point 38 °F
Humidity 51%
Rainfall 0.00 in
Snow Depth Not available.
5:31 AM 8:51 PM
New Moon, 1% visible
METAR KBIL 261453Z 21006KT 10SM FEW085 FEW200 10/02 A2994 RMK AO2 SLP136 T01000022 50005

Get Severe Weather Alerts

Thanks for signing up!

Be on the lookout for a verification email in your inbox.

You'll start receiving the daily forecast at 6 AM.

×

10-Day Weather Forecast

Almanac

Astronomy

May. 26, 2017 Rise Set
Actual Time
Civil Twilight
Nautical Twilight
Astronomical Twilight
Moon
Length of Visible Light
Length of Day
Tomorrow will be .
, % of the Moon is Illuminated

Today's Extremes

State Highs State Lows

Community

WunderPhotos

Category 6

Welcome to Category 6. This is the collective home for Weather Underground's featured writeups by Dr. Jeff Masters (right), Bob Henson (left), Chris Burt, and other regular contributors.

Nearby

Air Quality

  Air Quality AQ Index Pollutant
Not available.

Snow Depth

Station Depth Elevation

Earthquake Activity

City Distance Mag. Time & Date
Minimum magnitude displayed is 2.5.

Coastal Water Temperatures

Place Temperature

Stations

Nearby Weather Stations

Station Location Temp. Windchill Dew Point Humidity Wind Precip. Elev Updated Type
                   

Watches & Warnings

There are currently no watches in effect.